Location: RyutenAO
(34.8939°N, 134.0022°E)
Time: 09:27:23
(UTC+09:00)

Oscar 19 - Pass Details

Date: 06 April 2023
Orbit: 773 x 788 km, 98.8° (Epoch: 29 May)

Event Time Altitude Azimuth Distance (km) Brightness Sun altitude
Rises 04:11:11 0° 12° (NNE) 3,271 14.4 -19.4°
Reaches altitude 10° 04:13:30 10° 12° (NNE) 2,341 13.6 -19.0°
Maximum altitude 04:18:40 86° 285° (WNW) 790 10.6 -18.0°
Enters shadow 04:23:38 11° 196° (SSW) 2,258 12.7 -17.0°
